Retour au catalogue

SL-16 DEB

ActifLEO
NORAD 22344·DEBRIS·🇷🇺 Russia

Lancé Dec 25, 1992 depuis Baikonur Cosmodrome

Loading…

Prochains Passages (prochaines 24 heures)

TLE

FraisSource: Space-Track

Époque: Sep 14, 2026, 13:28 UTC

1 22344U 92093AH  26257.56159612  .00000728  00000-0  39703-3 0  9997
2 22344  71.0880 336.9649 0100675  33.8314 326.9176 14.12827220721870

Suivez SL-16 DEB en temps réel avec AllMySat

Download on the App Store